Notices

What's New in latest Release from April 7th, 2021:

- Updated Glossary, including Speed of Maximum Gust, and Total Hourly Precipitation

- Updated national and regional climate services offices contacts and prices information

- Addition of station inventory lists for 1981-2010, 1971-2000, and 1961-1990 Normals.

If you haven't already, please take our survey and provide feedback about our website: https://eccc.sondage-survey.ca/f/LanguageSelection.aspx?s=442ca660-fcf1-47c0-95a9-59707d6fd709

Hourly Data Report for September 30, 2019

QUALICUM BEACH AIRPORT
BRITISH COLUMBIA
Current Station Operator: ECCC - MSC

49°20'14.000" N
124°23'38.000" W
58.20 m
1026562
71766
VOQ

Download Data

Hourly Data (September 2019)
Hourly Data Report for September 30, 2019
TIME
LST
Temp Definition
°C
Dew Point Definition
°C
Rel Hum Definition
%
Precip. Amount Definition
mm

Wind Dir Definition
10's deg

Wind Spd Definition
km/h
Visibility Definition
km
Stn Press Definition
kPa
Hmdx Definition


Wind Chill Definition


Weather Definition


00:00 2.8 1.1 88 0.0 23 2   101.11     LegendNANA
01:00 4.2 1.0 80 0.0 27 5   101.12     LegendNANA
02:00 4.0 0.8 79 0.0 26 4   101.12     LegendNANA
03:00 3.5 0.8 82 0.0 26 6   101.13     LegendNANA
04:00 3.4 0.5 81 0.0 26 6   101.17     LegendNANA
05:00 3.1 0.4 83 0.0 25 5   101.19     LegendNANA
06:00 2.7 0.1 83 0.0 25 3   101.22     LegendNANA
07:00 2.3 0.4 87 0.0 23 2   101.28     LegendNANA
08:00 7.4 2.2 69 0.0 28 5   101.31     LegendNANA
09:00 11.3 1.3 50 0.0 32 10   101.34     LegendNANA
10:00 12.6 -0.3 41 0.0 32 8   101.34     LegendNANA
11:00 12.5 0.6 44 0.0 32 9   101.33     LegendNANA
12:00 13.1 2.2 48 0.0 2 7   101.32     LegendNANA
13:00 13.5 2.4 47 0.0 2 6   101.29     LegendNANA
14:00 14.0 2.6 46 0.0 35 6   101.26     LegendNANA
15:00 14.9 -2.5 30 0.0 1 4   101.23     LegendNANA
16:00 14.8 -3.9 27 0.0 36 4   101.23     LegendNANA
17:00 14.5 -3.0 30 0.0 3 3   101.25     LegendNANA
18:00 10.0 -0.2 49 0.0 24 2   101.28     LegendNANA
19:00 6.9 1.7 69 0.0 22 5   101.31     LegendNANA
20:00 5.9 2.5 79 0.0 0 1   101.32     LegendNANA
21:00 5.7 2.6 81 0.0 25 3   101.33     LegendNANA
22:00 4.1 2.1 87 0.0   0   101.36     LegendNANA
23:00 4.0 2.0 87 0.0 21 1   101.37     LegendNANA

Notes on Data Quality.

Legend

  • E = Estimated
  • M = Missing
  • NA = Not Available*
  • [empty] = Indicates an unobserved value
Date modified: